Wind_Speed
19 25 25 24 21 22 21 22 18 24 23 15 14 14 0 8 6 3 5 5 5 9 8 13 14 15 15 13 12 10 9 9 10 9 9 9 10 10 7 5 5 3 2 1
15 10 16 28 27 24 26 22 20 25 25 22 20 13 8 8 7 6 3 2 4 7 10 11 14 12 12 14 12 10 10 9 9 9 8 9 9 8 7 6 4 3 3 5
16 12 17 22 27 27 26 26 21 26 30 31 23 22 12 9 11 9 11 5 4 5 8 10 11 13 15 12 10 10 10 10 9 9 10 9 8 8 7 6 5 5 5 8
20 20 20 20 24 27 28 22 29 33 35 36 30 27 21 13 13 13 18 14 7 4 7 7 8 8 11 14 14 11 9 8 8 9 9 9 8 8 8 7 7 6 8 11
15 21 21 22 13 23 20 30 33 37 41 40 38 37 30 23 15 14 13 14 12 6 6 11 12 10 11 11 13 13 11 7 6 7 7 8 9 8 8 8 9 9 12 14
25 27 26 22 22 21 21 32 36 42 43 50 37 38 26 19 15 20 8 8 8 6 4 9 14 15 14 14 13 12 11 10 10 9 8 10 11 11 10 10 11 13 15 14
28 28 29 26 25 25 29 39 43 50 54 48 37 42 22 20 18 19 14 11 10 10 7 9 8 13 14 13 13 12 10 11 13 14 13 13 13 13 13 12 13 15 15 12
37 34 31 29 26 26 27 37 46 49 52 44 41 40 19 22 22 25 16 17 13 10 9 12 9 9 14 15 16 15 15 12 12 15 17 16 15 14 14 15 16 17 16 15
41 37 32 34 32 34 30 39 34 45 48 49 46 35 33 30 29 26 22 19 15 11 9 7 11 10 17 15 14 7 8 7 8 11 17 19 20 19 18 19 18 18 16 14
48 45 37 36 41 43 40 31 38 46 49 50 44 34 26 28 30 28 25 27 21 17 12 8 11 14 14 19 14 7 7 8 10 10 10 13 17 19 20 20 21 19 17 15
56 55 46 44 50 43 42 44 42 42 46 46 42 29 27 27 29 32 24 23 21 20 14 12 9 13 14 20 13 10 9 9 10 9 9 10 12 14 17 20 22 18 18 18
61 59 56 54 48 45 48 47 48 49 41 37 36 37 29 30 30 32 33 32 29 21 17 18 14 16 19 26 19 17 13 11 12 12 10 11 12 12 14 20 22 20 21 20
67 65 60 59 56 57 59 55 51 46 44 46 42 36 22 20 29 38 36 33 31 28 26 25 24 26 23 25 21 21 18 16 16 14 12 12 12 13 13 19 24 23 23 20
74 72 68 65 62 59 60 59 57 53 55 45 43 37 21 22 27 33 39 38 32 36 32 30 28 29 25 22 23 21 19 22 19 16 13 10 10 13 12 17 23 24 24 23
80 78 76 72 69 67 64 63 59 58 56 54 40 42 32 24 28 31 36 45 46 43 42 39 29 25 29 28 26 22 21 22 22 21 18 9 12 13 17 16 19 20 23 21
85 84 82 79 75 71 72 69 64 60 56 55 49 49 37 28 33 37 37 45 50 50 48 45 39 28 28 29 33 30 26 23 25 25 19 15 14 15 17 19 24 25 26 27
88 89 86 85 80 77 76 71 67 66 60 56 55 46 41 37 36 39 39 40 47 50 50 45 41 36 28 21 25 34 31 29 28 23 25 21 19 20 20 21 24 25 25 28
89 89 89 90 83 84 73 67 68 71 67 61 58 52 49 42 39 37 43 42 45 51 54 49 47 39 37 31 28 31 33 29 28 27 31 30 26 24 26 27 25 24 30 30
87 88 89 90 87 86 81 77 68 67 69 67 63 57 55 43 44 43 43 45 49 58 57 53 51 48 47 39 30 33 38 36 35 34 37 34 32 30 27 32 31 28 27 33
98 86 86 87 90 88 85 79 76 69 72 64 65 61 56 53 54 47 40 41 47 51 56 51 52 46 49 41 33 37 41 44 37 43 38 37 36 34 34 31 38 36 34 32
83 91 92 90 90 92 84 80 76 71 75 60 62 60 47 59 57 43 45 43 45 49 48 45 45 47 47 41 40 40 45 46 40 46 43 42 38 39 35 34 37 43 41 40
68 68 94 90 82 85 74 65 64 61 67 69 59 62 54 50 49 46 42 40 39 40 47 52 48 46 46 47 48 46 46 47 44 38 36 44 44 40 40 38 39 43 48 46
56 55 68 78 84 71 60 54 57 43 49 56 60 58 58 51 46 43 37 33 33 34 32 37 57 56 54 55 55 55 52 49 48 53 50 44 46 46 48 48 56 49 51 53
38 53 54 47 60 70 52 50 56 46 40 46 48 50 46 55 51 45 42 42 40 39 38 36 35 44 60 64 62 62 60 54 46 47 48 47 51 55 59 54 56 57 60 55
33 38 44 46 56 61 56 50 57 62 57 54 51 53 47 47 56 58 52 45 44 43 44 40 39 39 41 44 51 55 55 50 50 56 58 58 60 65 63 64 67 66 66 67
28 32 34 39 58 67 50 62 55 57 62 64 61 53 56 55 55 58 59 59 54 52 49 48 47 48 46 51 48 52 54 55 57 57 63 69 68 65 66 67 70 73 72 74
Wind_Direction
250 247 245 256 248 235 225 214 209 225 234 227 219 198 31 333 27 335 74 64 115 153 167 160 187 184 181 185 182 173 160 157 163 162 172 177 174 166 159 157 165 170 134 2
258 282 249 245 242 236 234 221 201 220 220 230 234 248 215 251 291 191 253 22 125 148 171 169 175 200 195 195 196 180 172 183 176 173 184 189 193 179 191 189 202 240 306 323
250 238 232 233 237 232 230 228 206 213 212 231 242 250 221 176 245 237 183 163 161 165 174 188 180 182 201 206 209 203 190 188 190 188 196 202 207 196 208 226 246 276 289 292
237 239 245 235 226 228 226 224 209 203 209 224 240 240 232 217 221 219 178 165 151 175 197 189 191 210 210 216 220 219 213 199 186 191 204 215 212 214 228 242 253 267 281 291
243 243 243 247 250 233 210 223 208 208 213 224 231 238 246 232 217 197 170 168 156 151 204 185 179 192 212 216 215 211 214 208 203 207 218 225 230 228 230 244 262 273 287 296
228 226 235 236 233 231 207 217 211 210 217 232 229 240 233 220 147 166 175 198 179 150 186 219 201 196 205 201 204 205 209 222 225 223 224 233 245 244 247 250 261 272 284 282
239 238 240 235 233 231 206 207 214 214 219 241 230 239 227 219 219 206 181 190 203 206 217 219 234 230 224 231 238 241 245 248 247 242 234 237 241 248 254 260 264 269 281 272
234 235 238 241 238 243 240 219 228 227 230 242 233 239 228 213 221 224 193 170 190 153 206 238 238 270 281 279 266 272 270 260 251 244 240 239 240 239 246 259 264 268 270 258
244 241 236 236 230 237 234 235 236 235 238 242 251 253 240 223 209 208 185 187 182 170 135 199 216 305 260 270 280 270 288 273 254 246 242 242 242 242 244 252 256 258 255 237
234 235 224 229 232 228 230 234 233 234 234 242 249 251 244 223 217 212 211 205 194 181 184 197 242 276 263 238 233 237 269 258 248 248 239 240 243 246 246 242 244 246 236 215
237 235 227 224 231 231 230 231 233 235 238 240 251 255 250 240 222 214 222 224 211 201 186 189 226 258 266 221 232 241 247 252 238 244 251 243 247 251 246 238 230 232 220 210
237 237 233 230 228 230 232 232 238 239 245 251 251 249 250 250 241 234 225 227 226 209 189 190 218 244 220 217 242 252 231 234 235 246 248 249 252 255 244 232 218 221 212 217
239 238 235 231 226 222 228 231 232 238 240 244 246 253 235 230 231 234 229 226 231 217 209 201 217 225 224 217 223 234 227 220 225 241 253 260 257 261 257 229 213 208 214 223
235 237 236 232 228 227 231 232 232 233 239 242 246 252 235 223 231 230 227 223 224 232 228 219 215 226 223 220 217 227 227 219 219 233 249 262 262 253 249 235 219 212 216 228
232 233 235 234 233 227 227 229 230 236 241 241 246 250 247 223 226 237 224 222 228 233 243 240 234 236 237 227 216 217 222 224 230 237 246 251 256 257 241 232 222 224 233 242
229 230 232 233 234 232 226 229 236 234 237 243 242 246 247 233 218 227 232 224 228 237 247 247 249 243 253 242 228 220 224 232 242 247 243 244 263 282 267 245 236 233 236 240
224 228 229 231 232 232 228 233 233 233 230 236 241 244 249 239 231 226 233 234 232 233 241 249 251 249 251 250 256 241 230 231 238 245 229 236 262 276 275 254 249 239 246 248
218 224 227 230 227 229 228 226 229 230 229 229 235 239 241 240 235 226 231 236 235 234 238 243 249 250 254 256 250 243 233 236 243 250 243 245 264 268 264 258 255 254 250 254
216 217 223 228 229 229 226 229 221 226 230 227 227 233 238 234 239 230 223 230 231 231 238 243 245 252 254 257 257 241 243 237 240 243 257 243 264 263 264 254 254 256 259 253
224 221 220 222 228 228 226 227 227 223 229 231 232 231 238 237 240 239 229 227 233 234 237 242 247 249 254 251 245 254 246 237 252 249 245 249 259 261 262 267 250 254 258 260
234 232 223 219 222 228 226 227 230 233 229 228 230 228 229 240 243 242 242 238 234 235 230 228 233 240 243 239 250 249 248 252 256 254 242 250 245 254 258 256 248 251 253 257
234 238 232 219 222 224 226 224 229 234 231 229 231 231 228 237 243 246 244 240 239 234 234 233 236 239 241 245 247 250 255 264 271 265 261 255 269 253 253 256 257 252 250 251
219 225 236 229 219 218 223 219 219 219 228 226 227 233 228 232 236 243 244 240 236 238 237 240 237 241 245 249 255 259 262 262 266 267 270 270 260 257 254 257 258 255 253 254
214 215 220 215 212 209 211 210 206 201 207 218 216 226 232 228 232 236 241 242 243 243 241 241 242 245 247 247 251 258 262 261 261 261 258 258 254 257 263 262 262 266 258 253
194 206 213 218 211 201 196 203 203 205 212 219 227 223 227 227 233 235 236 236 243 244 248 253 254 254 253 253 248 249 251 248 251 252 254 254 257 257 260 260 263 259 263 256
189 199 203 206 212 203 201 202 205 209 213 217 224 227 227 232 230 233 238 239 240 248 249 255 258 261 260 262 259 254 256 260 263 262 259 257 255 253 256 258 256 258 257 256
Height
5847 5849 5852 5858 5861 5865 5868 5872 5875 5877 5878 5879 5880 5880 5882 5883 5888 5890 5889 5891 5892 5892 5893 5895 5898 5900 5902 5903 5905 5905 5907 5910 5912 5914 5917 5919 5921 5921 5921 5922 5923 5923 5923 5924
5845 5847 5851 5854 5856 5860 5862 5866 5871 5875 5875 5875 5876 5876 5876 5880 5887 5888 5888 5887 5889 5892 5894 5895 5898 5901 5903 5904 5905 5906 5908 5911 5913 5914 5917 5919 5920 5921 5921 5921 5921 5921 5921 5921
5843 5845 5844 5847 5851 5855 5858 5862 5868 5872 5870 5869 5872 5873 5874 5875 5884 5887 5886 5886 5887 5890 5894 5896 5897 5899 5902 5904 5906 5906 5908 5911 5912 5914 5916 5918 5919 5919 5919 5919 5920 5921 5920 5920
5837 5840 5840 5842 5844 5849 5854 5861 5863 5866 5866 5865 5867 5868 5869 5873 5879 5884 5883 5884 5886 5889 5892 5895 5895 5898 5902 5903 5905 5907 5908 5910 5911 5913 5915 5916 5917 5917 5917 5918 5919 5919 5919 5918
5836 5835 5837 5838 5844 5844 5855 5853 5859 5860 5859 5860 5859 5860 5865 5868 5872 5880 5883 5883 5884 5887 5890 5893 5894 5896 5899 5902 5904 5905 5906 5907 5908 5911 5912 5913 5914 5915 5916 5917 5917 5918 5918 5917
5826 5827 5828 5835 5836 5839 5848 5849 5851 5854 5855 5846 5856 5855 5860 5861 5870 5877 5881 5884 5884 5886 5889 5891 5893 5894 5897 5899 5901 5903 5904 5904 5906 5908 5909 5910 5911 5912 5914 5915 5916 5916 5917 5916
5819 5822 5824 5827 5830 5831 5835 5839 5839 5841 5839 5836 5852 5849 5855 5860 5864 5871 5874 5880 5883 5884 5886 5889 5892 5894 5896 5897 5899 5901 5902 5903 5904 5904 5906 5907 5908 5910 5912 5914 5914 5914 5914 5913
5807 5812 5816 5822 5826 5828 5830 5831 5828 5827 5829 5835 5844 5838 5851 5860 5863 5866 5869 5875 5878 5882 5884 5887 5889 5891 5894 5894 5894 5897 5898 5899 5900 5900 5901 5903 5905 5907 5908 5910 5911 5911 5911 5911
5799 5803 5810 5811 5817 5817 5824 5818 5832 5829 5830 5831 5831 5838 5844 5852 5857 5861 5863 5868 5875 5880 5882 5885 5887 5887 5889 5890 5891 5891 5894 5894 5895 5896 5897 5899 5901 5903 5905 5905 5907 5908 5908 5909
5786 5790 5798 5802 5802 5804 5808 5820 5818 5815 5818 5819 5822 5828 5834 5845 5853 5858 5861 5863 5869 5874 5877 5882 5882 5884 5884 5886 5887 5888 5889 5891 5893 5893 5893 5895 5896 5897 5899 5900 5902 5904 5905 5907
5771 5776 5788 5788 5786 5799 5804 5804 5807 5810 5811 5815 5817 5819 5831 5838 5847 5852 5857 5861 5864 5867 5871 5875 5879 5879 5880 5882 5883 5883 5885 5887 5889 5891 5891 5892 5892 5893 5893 5894 5896 5899 5902 5903
5756 5762 5772 5774 5784 5791 5791 5795 5799 5798 5808 5810 5812 5811 5826 5833 5839 5846 5852 5854 5857 5860 5862 5866 5871 5872 5873 5877 5879 5880 5881 5883 5885 5887 5889 5889 5889 5888 5888 5888 5891 5894 5898 5900
5741 5746 5757 5765 5770 5769 5771 5782 5789 5798 5801 5797 5805 5806 5823 5826 5830 5835 5841 5847 5850 5854 5857 5857 5861 5866 5868 5871 5872 5874 5876 5878 5880 5882 5884 5885 5886 5885 5884 5883 5886 5890 5894 5896
5723 5730 5739 5749 5756 5761 5763 5770 5779 5787 5784 5793 5793 5804 5818 5823 5824 5827 5832 5839 5843 5846 5851 5852 5854 5858 5862 5865 5867 5869 5872 5873 5875 5877 5879 5882 5882 5882 5882 5881 5883 5886 5889 5892
5703 5712 5719 5729 5737 5744 5750 5756 5766 5770 5778 5781 5797 5795 5807 5817 5819 5821 5826 5831 5834 5837 5840 5845 5848 5852 5856 5859 5862 5864 5865 5869 5871 5873 5875 5878 5879 5879 5879 5880 5882 5883 5884 5886
5683 5693 5700 5711 5720 5730 5734 5743 5755 5760 5768 5773 5784 5785 5798 5809 5811 5813 5816 5821 5825 5830 5832 5835 5840 5844 5849 5853 5855 5859 5861 5863 5865 5867 5870 5873 5874 5876 5876 5877 5878 5879 5881 5882
5665 5672 5681 5693 5702 5709 5720 5731 5744 5750 5754 5763 5769 5782 5790 5798 5802 5805 5809 5812 5816 5821 5824 5829 5832 5836 5841 5847 5852 5855 5857 5858 5860 5862 5865 5867 5869 5870 5871 5871 5871 5873 5875 5876
5648 5654 5662 5671 5683 5689 5717 5728 5733 5737 5743 5749 5758 5769 5776 5785 5792 5797 5801 5804 5808 5813 5816 5821 5824 5829 5834 5839 5845 5848 5850 5851 5854 5857 5858 5860 5863 5866 5865 5865 5866 5867 5867 5867
5627 5636 5644 5654 5664 5680 5697 5710 5721 5724 5733 5738 5746 5757 5765 5776 5780 5786 5790 5795 5799 5805 5808 5814 5819 5823 5828 5830 5835 5840 5842 5844 5847 5849 5850 5851 5855 5857 5858 5859 5860 5859 5859 5860
5607 5618 5627 5637 5645 5660 5684 5692 5701 5713 5713 5732 5740 5746 5754 5762 5767 5776 5784 5788 5791 5795 5800 5806 5809 5814 5818 5822 5827 5831 5834 5835 5840 5842 5843 5847 5849 5848 5849 5851 5852 5852 5852 5852
5586 5592 5601 5622 5628 5646 5667 5679 5688 5693 5711 5725 5730 5737 5745 5749 5760 5770 5775 5780 5784 5789 5793 5797 5801 5805 5810 5814 5818 5821 5825 5828 5832 5834 5833 5836 5838 5839 5839 5840 5840 5842 5842 5841
5577 5580 5589 5614 5621 5638 5655 5672 5679 5688 5702 5713 5722 5730 5738 5744 5750 5756 5764 5770 5777 5781 5785 5789 5793 5796 5801 5804 5807 5811 5813 5817 5819 5823 5824 5824 5824 5827 5828 5829 5830 5830 5831 5830
5559 5570 5586 5600 5620 5644 5653 5665 5675 5684 5693 5701 5714 5721 5731 5739 5744 5749 5755 5762 5769 5771 5776 5780 5784 5787 5790 5793 5795 5798 5803 5807 5808 5808 5809 5812 5816 5817 5818 5818 5818 5819 5820 5819
5548 5565 5575 5590 5605 5633 5649 5661 5668 5678 5686 5695 5704 5712 5721 5731 5736 5742 5747 5752 5758 5761 5765 5769 5773 5775 5779 5783 5785 5786 5789 5790 5792 5795 5797 5799 5801 5803 5803 5806 5804 5805 5804 5804
5542 5554 5569 5582 5608 5629 5639 5652 5661 5670 5680 5688 5694 5706 5712 5719 5726 5732 5738 5742 5747 5752 5755 5758 5761 5764 5767 5769 5771 5773 5774 5776 5779 5781 5783 5785 5786 5786 5787 5789 5791 5788 5787 5787
5537 5550 5559 5576 5602 5627 5635 5647 5655 5661 5671 5679 5687 5694 5703 5711 5715 5721 5727 5732 5736 5740 5744 5747 5750 5754 5756 5758 5760 5761 5761 5762 5763 5765 5768 5768 5770 5771 5773 5772 5770 5766 5765 5764